Weather Roundup
Issued by NWS Chicago, IL

Home | Current Version | Previous Version | Text Only | Print | Product List | Glossary On
Versions: 1 2 3 4 5 6 7 8 9 10 11 12 13 14 15 16 17 18 19 20 21 22 23 24 25 26 27 28 29 30 31 32 33 34 35 36 37 38 39 40 41 42 43 44 45 46 47 48 49 50
000
NZUS59 KLOT 211908
HRRLOT

CHICAGO AREA WEATHER ROUNDUP
NATIONAL WEATHER SERVICE CHICAGO/ROMEOVILLE IL
200 PM CDT SAT APR 21 2018

NOTE: "FAIR" INDICATES FEW OR NO CLOUDS BELOW 12,000 FEET WITH NO
SIGNIFICANT WEATHER AND/OR OBSTRUCTIONS TO VISIBILITY.

* THESE STATIONS ARE NOT UNDER NWS QUALITY CONTROL. THEY ALSO MAY NOT
  REPORT WEATHER SUCH AS PRECIPITATION OR FOG.

ILZ005-006-012>014-019>023-212000-
NORTHEAST ILLINOIS

CITY           SKY/WX    TMP DP  RH WIND       PRES   REMARKS
OHARE          CLOUDY    52  26  36 N6        30.42R
MIDWAY         CLOUDY    49  27  42 E5        30.43R
AURORA         CLOUDY    53  33  46 N9        30.42S
LANSING*       CLOUDY    49  35  58 CALM      30.42S
JOLIET*        CLOUDY    55  31  40 N3        30.42S
WAUKEGAN       PTSUNNY   52  23  32 E6        30.42S
DUPAGE AIRPORT CLOUDY    52  33  48 SW7       30.42S
WHEELING       PTSUNNY   54  23  30 NE6       30.44S
KANKAKEE*        N/A     58  26  29 E8        30.40F
MORRIS*        CLOUDY    56  28  34 E6        30.40F
LEWIS AIRPORT* DRIZZLE   52  31  43 CALM      30.42S
NORTHERLY ISL    N/A     42  33  70 CALM        N/A
$$

WIZ051-052-058>065-066-070>072-212000-
SOUTHEAST WISCONSIN

CITY           SKY/WX    TMP DP  RH WIND       PRES   REMARKS
MILWAUKEE      PTSUNNY   54  23  30 E5        30.43F
KENOSHA*       CLOUDY    55  24  30 CALM      30.43S
RACINE*        CLOUDY    50  17  27 E6        30.44F
BURLINGTON       N/A     52  27  37 NW8       30.43S
WAUKESHA       CLOUDY    52  18  25 CALM      30.43F
WEST BEND        N/A     54  19  26 W7        30.42S
$$

INZ001>003-010>013-019-020-212000-
NORTHWEST INDIANA

CITY           SKY/WX    TMP DP  RH WIND       PRES   REMARKS
GARY*          CLOUDY    50  28  43 CALM      30.43S
MICHIGAN CITY* NOT AVBL
RENSSELAER*    NOT AVBL
VALPARAISO     CLOUDY    56  29  35 CALM      30.42S
$$

LMZ740>746-212000-
SOUTHERN LAKE MICHIGAN

STATION/POSITION TIME  SKY/WX   TEMP WIND        PRES    VSBY
                                AIR  DIR/SP/G
                 (UTC)          (F)  (DEG/KT/KT) (MB)    (MI)
HARRISON CRIB    1840            40   30/  3/  3   N/A
BURNHAM HARBOR   1900            42   70/  2/  7   N/A
CALUMET HARBOR   1842            41   60/  2/  5 1029.7S
BURNS HARBOR     1840            42   60/  6/  9 1030.5F
MICHIGAN CITY    1840            41   30/  9/  9   N/A
$$

ABBREVIATIONS USED IN REMARKS
   TC - TEMPERATURE IN CELSIUS
  WCI - WIND CHILL INDEX
   HX - HEAT INDEX
  VSB - VISIBILITY
$$




USA.gov is the U.S. government's official web portal to all federal, state and local government web resources and services.